KLM627 EHAM-KMIA

Flight info

Callsign KLM627
Flight time N/A
Altitude 38000
Route BERGI L60 PENIL M144 BAGSO RINUS NEBIN/M083F350 NATG TUDEP/N0485F360 N522E ALLEX FOXBO/N0491F380 RIFLE HEADI Q97 KALDA BGBRD Q101 SKARP Y313 HOAGG BNFSH3
Aircraft A333/H-SDE3GHIJ2J3J5M1RVWXY/LB2D1

Departure

Time N/A
Airport Amsterdam Airport Schiphol (EHAM)

Arrival

Time 2026-05-03 20:32
Airport Miami International Airport (KMIA)
Time Latitude Longitude Altitude Speed Heading
2026-05-03 20:15 26.13106 -80.05004 11728 ft 291 kts 196°
2026-05-03 20:15 26.11124 -80.05453 11562 ft 291 kts 196°
2026-05-03 20:15 26.09147 -80.05905 11360 ft 290 kts 196°
2026-05-03 20:15 26.07147 -80.06369 11191 ft 289 kts 197°
2026-05-03 20:16 26.05191 -80.06860 11003 ft 288 kts 197°
2026-05-03 20:16 26.03241 -80.07363 10837 ft 287 kts 197°
2026-05-03 20:16 26.01297 -80.07869 10628 ft 286 kts 198°
2026-05-03 20:16 25.99358 -80.08373 10465 ft 286 kts 198°
2026-05-03 20:17 25.97425 -80.08875 10289 ft 285 kts 198°
2026-05-03 20:17 25.95497 -80.09376 10120 ft 285 kts 197°
2026-05-03 20:17 25.93567 -80.09878 9945 ft 284 kts 198°
2026-05-03 20:17 25.91713 -80.10570 9739 ft 280 kts 208°
2026-05-03 20:18 25.89966 -80.11515 9576 ft 279 kts 211°
2026-05-03 20:18 25.88248 -80.12511 9396 ft 279 kts 211°
2026-05-03 20:18 25.86533 -80.13513 9237 ft 278 kts 211°
2026-05-03 20:18 25.84824 -80.14508 9067 ft 277 kts 211°
2026-05-03 20:19 25.83116 -80.15499 8878 ft 276 kts 211°
2026-05-03 20:19 25.81414 -80.16485 8720 ft 276 kts 211°
2026-05-03 20:19 25.79718 -80.17466 8543 ft 275 kts 211°
2026-05-03 20:19 25.78598 -80.18113 8437 ft 274 kts 211°
2026-05-03 20:20 25.76842 -80.19126 8258 ft 273 kts 211°
2026-05-03 20:20 25.75165 -80.20094 8095 ft 272 kts 211°
2026-05-03 20:20 25.73567 -80.21190 7918 ft 268 kts 222°
2026-05-03 20:20 25.72412 -80.22770 7620 ft 263 kts 245°
2026-05-03 20:21 25.71828 -80.24677 7366 ft 262 kts 256°
2026-05-03 20:21 25.71419 -80.26646 7116 ft 262 kts 258°
2026-05-03 20:21 25.71189 -80.28642 6857 ft 260 kts 265°
2026-05-03 20:21 25.71091 -80.30614 6719 ft 252 kts 266°
2026-05-03 20:22 25.71014 -80.32516 6605 ft 242 kts 266°
2026-05-03 20:22 25.70937 -80.34342 6513 ft 232 kts 266°
2026-05-03 20:22 25.70860 -80.36114 6404 ft 223 kts 265°
2026-05-03 20:22 25.70782 -80.37808 6215 ft 218 kts 266°
2026-05-03 20:23 25.70704 -80.39479 5963 ft 217 kts 265°
2026-05-03 20:23 25.70624 -80.41152 5690 ft 217 kts 266°
2026-05-03 20:23 25.70543 -80.42822 5415 ft 217 kts 265°
2026-05-03 20:23 25.70437 -80.44482 5161 ft 215 kts 265°
2026-05-03 20:24 25.70329 -80.46138 4897 ft 215 kts 265°
2026-05-03 20:24 25.70219 -80.47791 4626 ft 215 kts 265°
2026-05-03 20:24 25.70108 -80.49445 4336 ft 215 kts 265°
2026-05-03 20:24 25.69997 -80.51099 4055 ft 216 kts 265°
2026-05-03 20:25 25.69889 -80.52760 3786 ft 216 kts 265°
2026-05-03 20:25 25.69770 -80.54416 3495 ft 216 kts 265°
2026-05-03 20:25 25.69904 -80.56062 3206 ft 218 kts 290°
2026-05-03 20:25 25.70841 -80.57363 3001 ft 219 kts 326°
2026-05-03 20:26 25.72281 -80.57915 3009 ft 222 kts 349°
2026-05-03 20:26 25.73830 -80.58131 2989 ft 225 kts 355°
2026-05-03 20:26 25.75361 -80.57797 2974 ft 228 kts 28°
2026-05-03 20:26 25.76561 -80.56655 3003 ft 234 kts 49°
2026-05-03 20:27 25.77454 -80.55036 2977 ft 254 kts 68°
2026-05-03 20:27 25.77836 -80.53113 2936 ft 261 kts 85°
2026-05-03 20:27 25.77887 -80.51121 2956 ft 248 kts 90°
2026-05-03 20:27 25.77884 -80.49289 2957 ft 226 kts 89°
2026-05-03 20:28 25.77928 -80.47650 2923 ft 202 kts 87°
2026-05-03 20:28 25.77998 -80.46150 2691 ft 188 kts 87°
2026-05-03 20:28 25.78058 -80.44729 2410 ft 181 kts 87°
2026-05-03 20:28 25.78115 -80.43352 2149 ft 173 kts 86°
2026-05-03 20:29 25.78170 -80.42051 1922 ft 162 kts 86°
2026-05-03 20:29 25.78216 -80.40861 1712 ft 149 kts 87°
2026-05-03 20:29 25.78263 -80.39734 1530 ft 145 kts 86°
2026-05-03 20:29 25.78312 -80.38620 1340 ft 145 kts 86°
2026-05-03 20:30 25.78356 -80.37503 1154 ft 145 kts 87°
2026-05-03 20:30 25.78407 -80.36393 978 ft 144 kts 86°
2026-05-03 20:30 25.78459 -80.35287 791 ft 143 kts 86°
2026-05-03 20:30 25.78497 -80.34195 598 ft 141 kts 86°
2026-05-03 20:31 25.78541 -80.33115 400 ft 139 kts 84°
2026-05-03 20:31 25.78587 -80.32049 214 ft 138 kts 85°
2026-05-03 20:31 25.78630 -80.30992 43 ft 136 kts 85°
2026-05-03 20:31 25.78670 -80.30058 18 ft 96 kts 88°
2026-05-03 20:32 25.78695 -80.29465 18 ft 60 kts 87°
2026-05-03 20:32 25.78711 -80.29043 18 ft 45 kts 87°
2026-05-03 20:32 25.78738 -80.28798 19 ft 23 kts 72°
2026-05-03 20:32 25.78801 -80.28698 18 ft 14 kts 42°
2026-05-03 20:33 25.78865 -80.28623 18 ft 13 kts 65°
2026-05-03 20:33 25.78877 -80.28524 19 ft 13 kts 87°
2026-05-03 20:33 25.78881 -80.28414 19 ft 16 kts 87°
2026-05-03 20:33 25.78887 -80.28285 19 ft 17 kts 86°
2026-05-03 20:34 25.78895 -80.28153 20 ft 17 kts 84°
2026-05-03 20:34 25.78915 -80.28027 21 ft 16 kts 69°
2026-05-03 20:34 25.78932 -80.27924 20 ft 12 kts 108°
2026-05-03 20:34 25.78890 -80.27836 19 ft 14 kts 116°
2026-05-03 20:35 25.78878 -80.27729 19 ft 15 kts 87°
2026-05-03 20:35 25.78888 -80.27622 19 ft 13 kts 80°
2026-05-03 20:35 25.78919 -80.27526 20 ft 14 kts 51°
2026-05-03 20:35 25.79005 -80.27489 19 ft 13 kts
2026-05-03 20:36 25.79081 -80.27492 19 ft 7 kts 356°
2026-05-03 20:36 25.79115 -80.27492 19 ft 3 kts 12°
2026-05-03 20:36 25.79122 -80.27480 19 ft 2 kts 67°
2026-05-03 20:36 25.79118 -80.27460 19 ft 3 kts 106°
2026-05-03 20:37 25.79110 -80.27433 20 ft 2 kts 109°
2026-05-03 20:37 25.79107 -80.27423 20 ft 1 kts 110°
2026-05-03 20:37 25.79106 -80.27421 19 ft 0 kts 110°